Precipitable_Water
0.45 0.49 0.50 0.52 0.53 0.54 0.55 0.54 0.52 0.53 0.54 0.53 0.54 0.55 0.56 0.56 0.57 0.59 0.60 0.61 0.62 0.63 0.63 0.62 0.61 0.56 0.50 0.47 0.46 0.44 0.40 0.33 0.32 0.31 0.31 0.35 0.39 0.39 0.37 0.38 0.35 0.34 0.31 0.24 0.22 0.17 0.16 0.17 0.17 0.18 0.18 0.16 0.17 0.16 0.20 0.20 0.20 0.18 0.13 0.12 0.11 0.12 0.12 0.15 0.14 0.16 0.18 0.17 0.19 0.20 0.21 0.21 0.19 0.21 0.21 0.23 0.23 0.22 0.22 0.22 0.24 0.27 0.26 0.26 0.26 0.28 0.28 0.29
0.41 0.47 0.51 0.54 0.56 0.56 0.56 0.56 0.55 0.56 0.54 0.54 0.54 0.56 0.57 0.58 0.58 0.59 0.60 0.61 0.63 0.66 0.63 0.58 0.54 0.62 0.60 0.55 0.52 0.47 0.38 0.34 0.29 0.29 0.29 0.40 0.39 0.40 0.37 0.35 0.34 0.29 0.26 0.20 0.16 0.14 0.11 0.10 0.12 0.13 0.11 0.11 0.16 0.13 0.18 0.16 0.21 0.16 0.14 0.12 0.10 0.13 0.15 0.17 0.18 0.19 0.18 0.18 0.19 0.20 0.23 0.22 0.20 0.20 0.21 0.17 0.17 0.20 0.18 0.18 0.20 0.20 0.22 0.25 0.26 0.27 0.27 0.27
0.41 0.43 0.48 0.52 0.54 0.53 0.55 0.55 0.55 0.55 0.53 0.55 0.56 0.56 0.57 0.57 0.58 0.56 0.56 0.59 0.60 0.58 0.57 0.53 0.50 0.50 0.49 0.46 0.44 0.45 0.37 0.28 0.28 0.24 0.30 0.38 0.39 0.38 0.35 0.36 0.33 0.29 0.25 0.20 0.21 0.19 0.16 0.15 0.15 0.14 0.12 0.12 0.14 0.14 0.17 0.17 0.20 0.19 0.15 0.12 0.14 0.17 0.17 0.19 0.20 0.20 0.21 0.20 0.19 0.19 0.21 0.20 0.20 0.20 0.23 0.17 0.17 0.19 0.16 0.15 0.18 0.19 0.19 0.22 0.24 0.26 0.27 0.27
0.41 0.44 0.48 0.49 0.50 0.51 0.51 0.51 0.51 0.51 0.53 0.54 0.53 0.53 0.54 0.54 0.55 0.55 0.58 0.58 0.58 0.56 0.53 0.51 0.49 0.47 0.47 0.46 0.42 0.41 0.34 0.27 0.21 0.26 0.31 0.37 0.38 0.36 0.36 0.35 0.33 0.31 0.29 0.28 0.28 0.25 0.25 0.22 0.19 0.17 0.14 0.13 0.15 0.16 0.15 0.19 0.16 0.19 0.15 0.13 0.14 0.17 0.16 0.18 0.20 0.21 0.21 0.22 0.19 0.17 0.17 0.16 0.18 0.21 0.20 0.18 0.16 0.17 0.18 0.20 0.20 0.19 0.21 0.23 0.25 0.26 0.27 0.27
0.43 0.47 0.48 0.48 0.48 0.48 0.48 0.49 0.50 0.51 0.52 0.52 0.52 0.52 0.52 0.55 0.54 0.56 0.56 0.54 0.53 0.52 0.49 0.49 0.49 0.48 0.45 0.43 0.39 0.35 0.26 0.18 0.20 0.28 0.33 0.35 0.37 0.35 0.36 0.34 0.35 0.34 0.34 0.32 0.30 0.27 0.24 0.20 0.19 0.17 0.16 0.14 0.16 0.16 0.16 0.18 0.19 0.17 0.14 0.16 0.16 0.17 0.15 0.18 0.19 0.18 0.18 0.18 0.16 0.15 0.14 0.14 0.22 0.22 0.20 0.19 0.15 0.15 0.18 0.21 0.24 0.24 0.24 0.24 0.25 0.26 0.27 0.26
0.45 0.47 0.47 0.47 0.47 0.47 0.48 0.48 0.49 0.51 0.51 0.50 0.51 0.52 0.52 0.52 0.53 0.51 0.52 0.52 0.51 0.50 0.47 0.46 0.46 0.43 0.42 0.40 0.32 0.29 0.24 0.12 0.24 0.27 0.35 0.35 0.35 0.35 0.37 0.38 0.38 0.36 0.32 0.27 0.24 0.22 0.20 0.18 0.17 0.15 0.14 0.14 0.13 0.12 0.14 0.17 0.21 0.12 0.17 0.17 0.17 0.17 0.15 0.19 0.17 0.17 0.18 0.15 0.15 0.14 0.16 0.20 0.21 0.18 0.21 0.20 0.18 0.20 0.23 0.24 0.25 0.26 0.27 0.27 0.28 0.27 0.26 0.26
0.46 0.47 0.47 0.47 0.46 0.47 0.47 0.47 0.49 0.50 0.50 0.50 0.50 0.50 0.50 0.49 0.50 0.49 0.49 0.49 0.49 0.48 0.46 0.44 0.43 0.42 0.39 0.41 0.33 0.28 0.20 0.21 0.28 0.32 0.34 0.36 0.35 0.34 0.37 0.35 0.33 0.29 0.27 0.23 0.21 0.19 0.19 0.16 0.16 0.13 0.14 0.13 0.13 0.12 0.16 0.16 0.19 0.15 0.13 0.16 0.16 0.17 0.16 0.19 0.15 0.17 0.16 0.15 0.14 0.18 0.21 0.19 0.19 0.15 0.21 0.18 0.21 0.22 0.23 0.25 0.25 0.26 0.27 0.27 0.26 0.27 0.26 0.26
0.47 0.48 0.47 0.47 0.46 0.45 0.46 0.47 0.49 0.50 0.50 0.50 0.49 0.48 0.48 0.47 0.46 0.47 0.48 0.49 0.47 0.46 0.45 0.43 0.40 0.41 0.37 0.30 0.25 0.20 0.20 0.19 0.27 0.32 0.31 0.33 0.33 0.32 0.34 0.33 0.30 0.29 0.26 0.23 0.21 0.18 0.18 0.14 0.13 0.15 0.13 0.12 0.12 0.13 0.17 0.15 0.17 0.15 0.14 0.15 0.16 0.17 0.17 0.17 0.15 0.14 0.15 0.14 0.17 0.20 0.17 0.18 0.20 0.17 0.19 0.18 0.20 0.22 0.23 0.24 0.24 0.24 0.24 0.24 0.24 0.24 0.25 0.26
0.48 0.48 0.47 0.46 0.45 0.46 0.46 0.47 0.48 0.49 0.49 0.47 0.47 0.46 0.46 0.45 0.46 0.47 0.48 0.46 0.45 0.44 0.42 0.41 0.37 0.37 0.33 0.25 0.17 0.15 0.15 0.24 0.28 0.30 0.32 0.31 0.31 0.32 0.33 0.27 0.31 0.28 0.26 0.26 0.25 0.20 0.17 0.14 0.16 0.16 0.12 0.12 0.15 0.13 0.16 0.13 0.12 0.14 0.14 0.14 0.15 0.14 0.14 0.12 0.13 0.13 0.14 0.14 0.17 0.17 0.16 0.18 0.20 0.21 0.16 0.19 0.20 0.22 0.23 0.23 0.23 0.23 0.22 0.21 0.21 0.22 0.23 0.24
0.48 0.48 0.47 0.46 0.47 0.46 0.47 0.49 0.49 0.48 0.47 0.47 0.46 0.45 0.45 0.45 0.45 0.45 0.46 0.43 0.42 0.41 0.39 0.37 0.33 0.32 0.26 0.20 0.18 0.12 0.20 0.30 0.30 0.31 0.31 0.31 0.30 0.30 0.30 0.29 0.29 0.27 0.23 0.23 0.22 0.18 0.14 0.14 0.13 0.15 0.15 0.15 0.14 0.13 0.15 0.13 0.11 0.17 0.14 0.13 0.12 0.12 0.12 0.12 0.12 0.13 0.15 0.13 0.17 0.14 0.14 0.16 0.19 0.19 0.13 0.20 0.21 0.22 0.21 0.21 0.22 0.22 0.21 0.21 0.20 0.20 0.21 0.21
0.49 0.49 0.48 0.48 0.47 0.47 0.50 0.50 0.50 0.48 0.48 0.47 0.45 0.43 0.43 0.43 0.44 0.44 0.42 0.41 0.40 0.38 0.37 0.36 0.32 0.26 0.20 0.20 0.14 0.13 0.27 0.30 0.31 0.32 0.31 0.30 0.29 0.28 0.27 0.29 0.30 0.27 0.24 0.21 0.18 0.18 0.17 0.16 0.14 0.14 0.16 0.11 0.15 0.13 0.13 0.13 0.16 0.15 0.13 0.12 0.11 0.12 0.11 0.12 0.13 0.14 0.14 0.12 0.16 0.15 0.14 0.16 0.18 0.17 0.16 0.19 0.21 0.22 0.19 0.19 0.20 0.20 0.20 0.20 0.20 0.19 0.20 0.20
0.49 0.49 0.49 0.49 0.48 0.50 0.51 0.51 0.50 0.49 0.48 0.47 0.45 0.44 0.44 0.43 0.43 0.42 0.39 0.37 0.35 0.36 0.35 0.33 0.32 0.28 0.22 0.18 0.16 0.18 0.29 0.28 0.31 0.32 0.32 0.31 0.28 0.30 0.31 0.32 0.31 0.28 0.23 0.18 0.18 0.18 0.18 0.18 0.17 0.12 0.09 0.18 0.10 0.14 0.12 0.15 0.13 0.13 0.11 0.08 0.08 0.10 0.09 0.11 0.11 0.13 0.14 0.11 0.15 0.16 0.12 0.12 0.14 0.12 0.18 0.19 0.21 0.20 0.19 0.18 0.18 0.19 0.19 0.20 0.20 0.20 0.20 0.20
0.48 0.50 0.50 0.49 0.48 0.50 0.49 0.49 0.49 0.49 0.47 0.47 0.46 0.45 0.44 0.43 0.42 0.39 0.36 0.33 0.35 0.35 0.36 0.32 0.28 0.25 0.22 0.14 0.18 0.26 0.29 0.30 0.28 0.29 0.31 0.33 0.32 0.34 0.33 0.32 0.31 0.29 0.25 0.21 0.20 0.20 0.19 0.19 0.18 0.10 0.15 0.13 0.11 0.08 0.12 0.15 0.11 0.14 0.12 0.08 0.09 0.09 0.09 0.11 0.13 0.14 0.13 0.12 0.15 0.15 0.07 0.11 0.12 0.15 0.17 0.19 0.19 0.18 0.17 0.17 0.17 0.18 0.18 0.19 0.19 0.19 0.20 0.20
0.49 0.49 0.49 0.48 0.49 0.48 0.49 0.48 0.48 0.47 0.47 0.46 0.45 0.45 0.44 0.42 0.40 0.38 0.36 0.34 0.35 0.35 0.34 0.35 0.30 0.24 0.18 0.15 0.21 0.24 0.27 0.28 0.28 0.27 0.27 0.31 0.29 0.28 0.31 0.31 0.31 0.30 0.28 0.24 0.24 0.23 0.18 0.17 0.15 0.13 0.16 0.11 0.10 0.18 0.11 0.10 0.12 0.07 0.09 0.10 0.07 0.07 0.07 0.12 0.12 0.13 0.10 0.13 0.13 0.13 0.06 0.10 0.13 0.15 0.17 0.18 0.18 0.17 0.15 0.16 0.16 0.17 0.18 0.18 0.19 0.19 0.19 0.20
0.48 0.48 0.47 0.48 0.48 0.47 0.47 0.47 0.47 0.46 0.45 0.45 0.45 0.44 0.42 0.38 0.38 0.37 0.37 0.35 0.37 0.36 0.37 0.35 0.27 0.28 0.15 0.15 0.22 0.23 0.27 0.28 0.20 0.21 0.25 0.26 0.25 0.27 0.26 0.29 0.28 0.28 0.25 0.22 0.20 0.20 0.19 0.16 0.14 0.11 0.09 0.14 0.16 0.12 0.07 0.07 0.09 0.09 0.09 0.06 0.08 0.07 0.07 0.10 0.13 0.13 0.09 0.11 0.14 0.10 0.07 0.09 0.12 0.15 0.16 0.17 0.17 0.16 0.15 0.15 0.16 0.16 0.17 0.17 0.18 0.18 0.19 0.20
0.46 0.46 0.46 0.47 0.46 0.46 0.46 0.46 0.45 0.44 0.44 0.43 0.41 0.41 0.40 0.39 0.37 0.37 0.36 0.36 0.38 0.33 0.32 0.24 0.22 0.19 0.12 0.11 0.16 0.25 0.20 0.15 0.15 0.21 0.24 0.28 0.25 0.23 0.28 0.26 0.26 0.24 0.23 0.17 0.22 0.17 0.17 0.16 0.10 0.11 0.12 0.15 0.10 0.08 0.07 0.07 0.08 0.10 0.08 0.07 0.07 0.08 0.07 0.08 0.11 0.14 0.13 0.12 0.14 0.11 0.07 0.11 0.12 0.15 0.16 0.17 0.16 0.15 0.14 0.15 0.15 0.16 0.17 0.17 0.17 0.18 0.18 0.18
0.44 0.44 0.44 0.45 0.44 0.44 0.44 0.44 0.44 0.43 0.41 0.39 0.37 0.36 0.35 0.35 0.35 0.35 0.36 0.35 0.33 0.33 0.27 0.23 0.24 0.19 0.10 0.17 0.23 0.14 0.14 0.17 0.21 0.21 0.24 0.28 0.27 0.25 0.26 0.23 0.20 0.22 0.24 0.17 0.16 0.19 0.14 0.11 0.13 0.14 0.14 0.10 0.12 0.10 0.08 0.06 0.07 0.08 0.11 0.08 0.08 0.07 0.08 0.06 0.10 0.13 0.14 0.12 0.09 0.12 0.09 0.10 0.12 0.14 0.15 0.15 0.15 0.15 0.14 0.14 0.15 0.16 0.16 0.17 0.17 0.17 0.18 0.18
0.42 0.42 0.44 0.44 0.44 0.44 0.43 0.44 0.44 0.41 0.39 0.36 0.35 0.35 0.30 0.31 0.34 0.34 0.31 0.31 0.31 0.27 0.24 0.25 0.24 0.22 0.11 0.15 0.11 0.12 0.17 0.16 0.17 0.18 0.21 0.25 0.27 0.24 0.22 0.20 0.20 0.21 0.18 0.15 0.13 0.11 0.13 0.10 0.12 0.09 0.10 0.10 0.11 0.09 0.06 0.06 0.07 0.07 0.07 0.07 0.07 0.08 0.09 0.07 0.07 0.12 0.12 0.13 0.10 0.10 0.10 0.10 0.12 0.13 0.14 0.14 0.15 0.14 0.13 0.14 0.15 0.15 0.16 0.17 0.17 0.18 0.18 0.18
0.41 0.43 0.45 0.44 0.43 0.43 0.43 0.43 0.41 0.38 0.34 0.35 0.36 0.37 0.36 0.33 0.27 0.24 0.22 0.22 0.19 0.15 0.13 0.13 0.13 0.07 0.07 0.12 0.16 0.16 0.16 0.18 0.18 0.16 0.15 0.20 0.22 0.23 0.22 0.21 0.19 0.17 0.11 0.10 0.10 0.12 0.12 0.12 0.12 0.09 0.08 0.09 0.10 0.10 0.08 0.08 0.09 0.08 0.09 0.08 0.08 0.07 0.07 0.07 0.08 0.13 0.12 0.10 0.10 0.10 0.08 0.10 0.11 0.12 0.13 0.14 0.15 0.14 0.14 0.14 0.15 0.16 0.17 0.17 0.17 0.18 0.18 0.17
0.42 0.44 0.43 0.42 0.42 0.42 0.42 0.41 0.38 0.36 0.34 0.32 0.33 0.29 0.25 0.17 0.15 0.14 0.19 0.18 0.15 0.15 0.15 0.17 0.18 0.16 0.15 0.14 0.13 0.17 0.20 0.18 0.11 0.13 0.16 0.21 0.20 0.17 0.16 0.17 0.14 0.13 0.10 0.08 0.10 0.11 0.15 0.09 0.09 0.09 0.10 0.11 0.12 0.12 0.11 0.11 0.12 0.11 0.11 0.09 0.07 0.08 0.08 0.10 0.10 0.12 0.15 0.11 0.10 0.10 0.11 0.11 0.12 0.13 0.14 0.14 0.15 0.14 0.14 0.14 0.15 0.16 0.16 0.17 0.17 0.17 0.17 0.17
0.42 0.41 0.40 0.40 0.41 0.41 0.40 0.38 0.37 0.36 0.35 0.32 0.28 0.22 0.15 0.15 0.11 0.10 0.14 0.16 0.18 0.18 0.16 0.16 0.17 0.14 0.12 0.14 0.15 0.14 0.11 0.11 0.13 0.12 0.14 0.20 0.19 0.17 0.12 0.16 0.12 0.09 0.10 0.12 0.10 0.13 0.17 0.09 0.09 0.12 0.13 0.13 0.12 0.13 0.12 0.11 0.11 0.10 0.09 0.08 0.07 0.08 0.07 0.08 0.08 0.12 0.15 0.10 0.09 0.12 0.11 0.11 0.12 0.13 0.14 0.14 0.14 0.13 0.13 0.14 0.15 0.15 0.16 0.16 0.16 0.16 0.16 0.16
0.40 0.40 0.40 0.39 0.40 0.39 0.39 0.39 0.38 0.36 0.34 0.31 0.25 0.18 0.18 0.17 0.19 0.20 0.16 0.10 0.16 0.17 0.16 0.15 0.18 0.16 0.18 0.16 0.16 0.17 0.15 0.10 0.09 0.11 0.15 0.18 0.13 0.11 0.11 0.13 0.12 0.09 0.12 0.11 0.12 0.10 0.09 0.09 0.11 0.13 0.15 0.14 0.13 0.12 0.12 0.10 0.09 0.10 0.08 0.07 0.07 0.07 0.08 0.10 0.10 0.13 0.13 0.12 0.09 0.11 0.10 0.11 0.12 0.13 0.14 0.13 0.13 0.14 0.15 0.15 0.15 0.15 0.15 0.15 0.16 0.16 0.17 0.17
0.39 0.39 0.39 0.39 0.40 0.41 0.40 0.38 0.34 0.31 0.27 0.24 0.21 0.22 0.21 0.29 0.32 0.27 0.17 0.12 0.11 0.16 0.14 0.13 0.11 0.12 0.14 0.18 0.16 0.17 0.09 0.08 0.09 0.11 0.13 0.16 0.13 0.13 0.13 0.10 0.11 0.13 0.12 0.12 0.09 0.09 0.08 0.10 0.12 0.15 0.14 0.11 0.11 0.10 0.10 0.10 0.10 0.08 0.08 0.07 0.06 0.08 0.07 0.05 0.10 0.12 0.13 0.11 0.09 0.12 0.11 0.12 0.13 0.14 0.14 0.14 0.14 0.15 0.16 0.17 0.16 0.17 0.16 0.16 0.17 0.17 0.18 0.18
0.39 0.40 0.41 0.42 0.42 0.39 0.38 0.37 0.36 0.30 0.27 0.26 0.24 0.26 0.33 0.38 0.38 0.26 0.12 0.08 0.07 0.10 0.14 0.12 0.13 0.12 0.12 0.13 0.17 0.15 0.09 0.11 0.12 0.11 0.17 0.15 0.12 0.16 0.13 0.12 0.11 0.12 0.12 0.13 0.12 0.09 0.09 0.12 0.16 0.14 0.12 0.10 0.08 0.09 0.09 0.08 0.07 0.08 0.08 0.07 0.07 0.07 0.08 0.08 0.07 0.11 0.12 0.12 0.15 0.13 0.10 0.10 0.11 0.11 0.12 0.15 0.16 0.16 0.16 0.17 0.18 0.18 0.19 0.20 0.20 0.20 0.20 0.20
0.42 0.43 0.42 0.41 0.38 0.39 0.37 0.38 0.30 0.29 0.32 0.28 0.26 0.34 0.39 0.39 0.37 0.31 0.20 0.11 0.08 0.07 0.15 0.12 0.15 0.12 0.16 0.21 0.21 0.14 0.13 0.12 0.13 0.15 0.18 0.16 0.13 0.15 0.12 0.15 0.13 0.10 0.13 0.15 0.12 0.12 0.11 0.14 0.16 0.13 0.11 0.09 0.09 0.08 0.09 0.09 0.07 0.08 0.09 0.09 0.09 0.08 0.08 0.08 0.11 0.10 0.08 0.09 0.14 0.11 0.06 0.05 0.10 0.11 0.12 0.13 0.15 0.15 0.17 0.17 0.18 0.19 0.20 0.20 0.20 0.20 0.21 0.20
0.41 0.40 0.40 0.39 0.38 0.37 0.37 0.27 0.28 0.35 0.29 0.25 0.27 0.35 0.40 0.41 0.41 0.33 0.17 0.06 0.04 0.07 0.11 0.08 0.15 0.09 0.20 0.11 0.15 0.16 0.18 0.09 0.14 0.15 0.19 0.18 0.22 0.15 0.16 0.11 0.13 0.09 0.13 0.14 0.11 0.11 0.11 0.14 0.14 0.11 0.09 0.09 0.09 0.08 0.10 0.11 0.07 0.07 0.07 0.11 0.09 0.09 0.09 0.08 0.10 0.09 0.06 0.05 0.09 0.12 0.07 0.05 0.09 0.10 0.12 0.13 0.14 0.14 0.17 0.18 0.18 0.19 0.19 0.20 0.20 0.20 0.20 0.19
0.40 0.39 0.40 0.39 0.37 0.35 0.26 0.21 0.32 0.33 0.21 0.24 0.35 0.36 0.38 0.43 0.43 0.32 0.21 0.05 0.04 0.08 0.08 0.11 0.12 0.11 0.18 0.13 0.13 0.17 0.06 0.08 0.15 0.16 0.16 0.19 0.15 0.18 0.11 0.10 0.13 0.14 0.15 0.15 0.12 0.08 0.13 0.12 0.13 0.12 0.09 0.08 0.08 0.07 0.10 0.10 0.09 0.07 0.10 0.10 0.09 0.09 0.09 0.09 0.10 0.09 0.07 0.11 0.11 0.11 0.10 0.07 0.06 0.09 0.13 0.14 0.14 0.14 0.16 0.18 0.18 0.19 0.19 0.19 0.19 0.20 0.20 0.19
0.40 0.40 0.39 0.38 0.36 0.32 0.26 0.29 0.27 0.22 0.22 0.28 0.36 0.36 0.37 0.37 0.37 0.33 0.09 0.03 0.03 0.10 0.08 0.11 0.11 0.18 0.14 0.15 0.14 0.10 0.10 0.14 0.10 0.13 0.18 0.20 0.19 0.14 0.12 0.10 0.10 0.10 0.12 0.13 0.07 0.11 0.12 0.11 0.12 0.10 0.09 0.08 0.07 0.09 0.11 0.12 0.09 0.09 0.11 0.10 0.09 0.09 0.10 0.10 0.10 0.09 0.09 0.09 0.06 0.10 0.11 0.07 0.06 0.09 0.13 0.15 0.13 0.14 0.15 0.16 0.17 0.18 0.19 0.19 0.20 0.21 0.20 0.20
0.38 0.37 0.36 0.37 0.36 0.33 0.32 0.27 0.25 0.21 0.29 0.34 0.34 0.35 0.39 0.35 0.22 0.14 0.05 0.03 0.06 0.09 0.17 0.09 0.18 0.14 0.13 0.15 0.11 0.12 0.12 0.14 0.10 0.14 0.18 0.20 0.20 0.15 0.11 0.11 0.12 0.11 0.12 0.11 0.09 0.11 0.13 0.13 0.14 0.14 0.10 0.08 0.09 0.10 0.11 0.12 0.09 0.11 0.12 0.11 0.10 0.11 0.10 0.11 0.10 0.08 0.08 0.07 0.05 0.06 0.08 0.06 0.06 0.08 0.12 0.15 0.13 0.13 0.14 0.16 0.17 0.18 0.18 0.19 0.20 0.21 0.22 0.21
0.36 0.35 0.35 0.35 0.34 0.29 0.27 0.29 0.25 0.31 0.35 0.36 0.35 0.36 0.34 0.22 0.20 0.07 0.04 0.03 0.10 0.05 0.11 0.11 0.11 0.09 0.12 0.09 0.10 0.12 0.10 0.12 0.15 0.16 0.17 0.15 0.17 0.19 0.15 0.16 0.13 0.11 0.10 0.11 0.10 0.12 0.14 0.20 0.19 0.15 0.11 0.11 0.10 0.11 0.12 0.13 0.13 0.14 0.12 0.11 0.10 0.10 0.09 0.10 0.10 0.08 0.07 0.05 0.05 0.07 0.08 0.09 0.07 0.09 0.11 0.11 0.13 0.15 0.16 0.16 0.17 0.19 0.19 0.19 0.21 0.21 0.22 0.21
0.34 0.34 0.33 0.34 0.26 0.27 0.25 0.21 0.26 0.33 0.37 0.36 0.35 0.31 0.25 0.14 0.07 0.05 0.04 0.06 0.12 0.09 0.12 0.10 0.09 0.14 0.09 0.08 0.08 0.12 0.12 0.13 0.14 0.16 0.14 0.17 0.14 0.15 0.14 0.13 0.15 0.10 0.09 0.09 0.09 0.11 0.13 0.14 0.12 0.15 0.19 0.14 0.14 0.10 0.13 0.14 0.14 0.14 0.11 0.09 0.08 0.08 0.10 0.10 0.08 0.09 0.05 0.05 0.06 0.08 0.10 0.11 0.07 0.09 0.14 0.16 0.17 0.16 0.16 0.15 0.16 0.17 0.18 0.20 0.22 0.22 0.20 0.19
0.31 0.31 0.33 0.30 0.31 0.31 0.20 0.18 0.28 0.34 0.34 0.35 0.27 0.20 0.15 0.05 0.06 0.04 0.05 0.13 0.05 0.08 0.08 0.08 0.11 0.10 0.09 0.10 0.10 0.11 0.11 0.13 0.14 0.15 0.13 0.14 0.13 0.13 0.14 0.11 0.11 0.07 0.08 0.08 0.08 0.10 0.10 0.11 0.11 0.16 0.19 0.13 0.12 0.11 0.12 0.13 0.14 0.12 0.11 0.10 0.07 0.06 0.07 0.05 0.06 0.05 0.05 0.05 0.07 0.09 0.10 0.10 0.10 0.12 0.13 0.15 0.15 0.16 0.17 0.18 0.18 0.19 0.19 0.21 0.21 0.19 0.18 0.18
0.31 0.28 0.28 0.29 0.31 0.27 0.30 0.33 0.36 0.34 0.34 0.27 0.21 0.17 0.06 0.04 0.03 0.06 0.06 0.08 0.05 0.11 0.08 0.14 0.10 0.10 0.09 0.10 0.09 0.12 0.15 0.11 0.14 0.14 0.16 0.15 0.14 0.14 0.16 0.15 0.15 0.10 0.07 0.09 0.08 0.09 0.09 0.10 0.11 0.12 0.15 0.14 0.13 0.08 0.09 0.10 0.12 0.12 0.10 0.09 0.07 0.06 0.06 0.05 0.06 0.07 0.06 0.07 0.08 0.08 0.11 0.08 0.09 0.10 0.14 0.13 0.15 0.17 0.18 0.18 0.19 0.20 0.19 0.18 0.17 0.19 0.18 0.15
0.25 0.24 0.21 0.25 0.27 0.32 0.36 0.38 0.36 0.35 0.24 0.20 0.12 0.07 0.05 0.03 0.04 0.10 0.07 0.08 0.07 0.13 0.14 0.11 0.11 0.10 0.10 0.08 0.10 0.12 0.11 0.14 0.13 0.13 0.15 0.13 0.13 0.11 0.13 0.16 0.16 0.12 0.12 0.11 0.08 0.08 0.07 0.07 0.10 0.11 0.10 0.13 0.12 0.11 0.12 0.11 0.12 0.12 0.13 0.11 0.10 0.09 0.07 0.06 0.07 0.06 0.06 0.07 0.08 0.10 0.09 0.08 0.07 0.10 0.14 0.15 0.17 0.18 0.19 0.20 0.19 0.18 0.18 0.18 0.19 0.17 0.13 0.10
0.23 0.21 0.21 0.22 0.24 0.27 0.32 0.35 0.33 0.28 0.15 0.10 0.07 0.05 0.04 0.04 0.06 0.05 0.06 0.08 0.11 0.13 0.11 0.15 0.09 0.09 0.08 0.10 0.12 0.14 0.13 0.11 0.14 0.13 0.13 0.13 0.12 0.13 0.12 0.13 0.17 0.16 0.13 0.09 0.10 0.10 0.08 0.08 0.10 0.15 0.14 0.13 0.11 0.14 0.15 0.12 0.13 0.13 0.13 0.15 0.11 0.09 0.12 0.08 0.08 0.09 0.10 0.09 0.08 0.08 0.08 0.10 0.10 0.15 0.16 0.17 0.18 0.18 0.18 0.17 0.16 0.15 0.15 0.16 0.13 0.10 0.09 0.11
0.23 0.16 0.19 0.17 0.18 0.20 0.27 0.30 0.26 0.21 0.12 0.08 0.05 0.05 0.04 0.06 0.05 0.09 0.08 0.15 0.13 0.10 0.11 0.12 0.09 0.09 0.09 0.10 0.13 0.12 0.16 0.13 0.13 0.13 0.12 0.14 0.15 0.13 0.16 0.16 0.16 0.18 0.13 0.09 0.11 0.08 0.09 0.07 0.11 0.14 0.14 0.12 0.12 0.14 0.14 0.15 0.08 0.11 0.12 0.11 0.12 0.15 0.14 0.12 0.12 0.11 0.10 0.10 0.08 0.10 0.09 0.09 0.14 0.16 0.17 0.18 0.17 0.15 0.15 0.16 0.16 0.16 0.15 0.11 0.08 0.10 0.10 0.11
0.18 0.17 0.12 0.14 0.15 0.19 0.22 0.23 0.20 0.15 0.12 0.07 0.05 0.04 0.08 0.09 0.12 0.11 0.13 0.12 0.13 0.14 0.10 0.08 0.09 0.09 0.09 0.09 0.11 0.12 0.13 0.15 0.13 0.12 0.10 0.13 0.13 0.15 0.15 0.16 0.20 0.19 0.19 0.14 0.12 0.13 0.09 0.08 0.12 0.12 0.10 0.12 0.15 0.15 0.15 0.16 0.16 0.14 0.10 0.12 0.15 0.18 0.16 0.13 0.08 0.09 0.09 0.07 0.07 0.09 0.08 0.08 0.10 0.09 0.18 0.16 0.13 0.14 0.15 0.16 0.16 0.14 0.10 0.09 0.10 0.11 0.11 0.11
0.16 0.14 0.14 0.12 0.15 0.19 0.22 0.20 0.17 0.13 0.09 0.06 0.06 0.07 0.12 0.09 0.14 0.14 0.18 0.16 0.16 0.15 0.10 0.09 0.10 0.12 0.10 0.11 0.11 0.13 0.14 0.12 0.12 0.13 0.11 0.12 0.11 0.19 0.16 0.16 0.20 0.20 0.20 0.21 0.13 0.12 0.15 0.09 0.10 0.12 0.12 0.12 0.14 0.14 0.14 0.16 0.19 0.14 0.12 0.19 0.11 0.09 0.09 0.12 0.12 0.07 0.07 0.07 0.08 0.09 0.10 0.09 0.11 0.10 0.13 0.12 0.13 0.15 0.16 0.16 0.14 0.11 0.10 0.11 0.11 0.11 0.11 0.11
0.14 0.11 0.09 0.13 0.18 0.19 0.18 0.19 0.13 0.10 0.07 0.06 0.07 0.07 0.11 0.13 0.18 0.16 0.18 0.19 0.17 0.13 0.10 0.11 0.10 0.12 0.13 0.12 0.13 0.15 0.15 0.12 0.14 0.12 0.11 0.12 0.11 0.18 0.16 0.18 0.17 0.22 0.22 0.19 0.15 0.14 0.16 0.09 0.09 0.12 0.11 0.11 0.12 0.12 0.09 0.11 0.17 0.18 0.18 0.16 0.17 0.14 0.12 0.10 0.10 0.10 0.11 0.08 0.08 0.08 0.09 0.07 0.11 0.12 0.14 0.14 0.15 0.15 0.14 0.13 0.10 0.10 0.10 0.11 0.11 0.11 0.11 0.10
0.12 0.08 0.08 0.14 0.18 0.19 0.18 0.16 0.11 0.09 0.07 0.06 0.08 0.09 0.14 0.12 0.16 0.20 0.21 0.20 0.14 0.12 0.11 0.12 0.14 0.12 0.13 0.14 0.15 0.13 0.15 0.15 0.14 0.13 0.12 0.13 0.12 0.21 0.16 0.21 0.18 0.19 0.21 0.21 0.17 0.18 0.12 0.13 0.08 0.09 0.13 0.12 0.09 0.11 0.10 0.12 0.11 0.12 0.12 0.13 0.14 0.14 0.16 0.16 0.15 0.11 0.09 0.09 0.09 0.08 0.07 0.08 0.12 0.16 0.15 0.15 0.15 0.14 0.13 0.11 0.11 0.10 0.11 0.10 0.11 0.10 0.11 0.12
0.12 0.09 0.08 0.16 0.16 0.18 0.16 0.11 0.09 0.09 0.09 0.12 0.13 0.12 0.14 0.12 0.16 0.17 0.21 0.23 0.20 0.21 0.15 0.14 0.14 0.13 0.14 0.14 0.14 0.17 0.14 0.15 0.14 0.13 0.13 0.13 0.13 0.11 0.18 0.19 0.22 0.18 0.21 0.19 0.17 0.16 0.12 0.13 0.09 0.10 0.10 0.09 0.09 0.13 0.14 0.14 0.15 0.13 0.13 0.13 0.13 0.13 0.11 0.10 0.09 0.15 0.13 0.11 0.09 0.08 0.07 0.09 0.14 0.17 0.15 0.15 0.14 0.13 0.12 0.11 0.10 0.10 0.10 0.10 0.09 0.10 0.12 0.12
0.09 0.06 0.08 0.15 0.17 0.17 0.12 0.09 0.12 0.14 0.12 0.10 0.10 0.14 0.13 0.21 0.16 0.16 0.19 0.22 0.20 0.16 0.21 0.17 0.18 0.16 0.16 0.16 0.16 0.16 0.15 0.14 0.14 0.13 0.14 0.12 0.16 0.15 0.18 0.25 0.23 0.23 0.18 0.14 0.15 0.18 0.16 0.14 0.11 0.09 0.09 0.09 0.11 0.14 0.17 0.18 0.18 0.16 0.16 0.14 0.16 0.15 0.15 0.12 0.09 0.10 0.12 0.12 0.13 0.12 0.09 0.08 0.15 0.17 0.15 0.14 0.13 0.11 0.10 0.11 0.10 0.09 0.09 0.09 0.10 0.12 0.12 0.13
0.08 0.08 0.13 0.15 0.17 0.14 0.10 0.10 0.13 0.12 0.11 0.15 0.20 0.17 0.19 0.16 0.15 0.16 0.16 0.20 0.16 0.19 0.17 0.16 0.17 0.17 0.18 0.17 0.17 0.17 0.16 0.14 0.15 0.13 0.14 0.14 0.15 0.19 0.22 0.25 0.25 0.22 0.22 0.17 0.19 0.18 0.19 0.11 0.10 0.09 0.10 0.11 0.13 0.15 0.16 0.17 0.16 0.15 0.15 0.16 0.15 0.13 0.14 0.13 0.13 0.14 0.12 0.12 0.11 0.10 0.08 0.08 0.12 0.14 0.14 0.13 0.11 0.10 0.12 0.11 0.09 0.09 0.09 0.10 0.11 0.12 0.13 0.13
0.10 0.10 0.11 0.16 0.18 0.14 0.10 0.08 0.08 0.10 0.12 0.15 0.15 0.14 0.18 0.16 0.15 0.15 0.15 0.17 0.16 0.16 0.15 0.16 0.18 0.21 0.18 0.21 0.19 0.16 0.17 0.12 0.15 0.15 0.14 0.15 0.15 0.23 0.23 0.25 0.26 0.20 0.19 0.16 0.14 0.19 0.11 0.12 0.11 0.08 0.08 0.08 0.09 0.12 0.13 0.16 0.16 0.14 0.13 0.15 0.15 0.16 0.16 0.15 0.15 0.15 0.11 0.11 0.11 0.10 0.07 0.08 0.11 0.14 0.13 0.11 0.10 0.10 0.11 0.10 0.08 0.07 0.08 0.10 0.11 0.12 0.13 0.14
0.11 0.12 0.12 0.14 0.16 0.13 0.09 0.11 0.10 0.10 0.11 0.12 0.12 0.12 0.14 0.15 0.18 0.17 0.16 0.16 0.20 0.18 0.17 0.16 0.19 0.22 0.20 0.21 0.19 0.20 0.20 0.15 0.13 0.17 0.16 0.16 0.16 0.23 0.24 0.25 0.25 0.21 0.22 0.24 0.22 0.25 0.15 0.13 0.11 0.08 0.07 0.07 0.07 0.08 0.08 0.10 0.13 0.14 0.16 0.15 0.16 0.16 0.15 0.14 0.11 0.12 0.10 0.11 0.12 0.10 0.09 0.10 0.12 0.12 0.11 0.09 0.10 0.10 0.10 0.09 0.08 0.09 0.09 0.10 0.10 0.12 0.13 0.14
0.10 0.08 0.10 0.11 0.14 0.14 0.15 0.17 0.13 0.11 0.11 0.11 0.11 0.12 0.14 0.13 0.16 0.19 0.21 0.17 0.20 0.20 0.20 0.20 0.22 0.23 0.20 0.20 0.17 0.18 0.17 0.19 0.15 0.14 0.15 0.14 0.17 0.19 0.24 0.26 0.23 0.22 0.22 0.21 0.19 0.21 0.14 0.16 0.12 0.11 0.10 0.09 0.10 0.11 0.13 0.16 0.15 0.12 0.13 0.14 0.15 0.16 0.17 0.17 0.16 0.13 0.10 0.11 0.10 0.11 0.11 0.10 0.09 0.09 0.09 0.09 0.10 0.10 0.09 0.09 0.08 0.09 0.09 0.10 0.11 0.12 0.13 0.15
0.12 0.09 0.10 0.09 0.12 0.13 0.12 0.14 0.13 0.13 0.11 0.14 0.10 0.13 0.11 0.14 0.15 0.16 0.21 0.15 0.19 0.19 0.20 0.20 0.20 0.18 0.18 0.18 0.17 0.17 0.17 0.17 0.17 0.17 0.15 0.15 0.17 0.19 0.25 0.25 0.24 0.23 0.22 0.19 0.18 0.16 0.13 0.13 0.12 0.12 0.12 0.13 0.14 0.14 0.15 0.16 0.14 0.13 0.13 0.13 0.15 0.15 0.15 0.15 0.13 0.12 0.15 0.12 0.08 0.10 0.10 0.08 0.08 0.08 0.08 0.10 0.10 0.10 0.09 0.08 0.09 0.09 0.10 0.11 0.12 0.13 0.14 0.15
0.09 0.12 0.14 0.14 0.09 0.08 0.10 0.10 0.14 0.12 0.13 0.13 0.11 0.14 0.12 0.12 0.12 0.12 0.17 0.19 0.20 0.20 0.18 0.19 0.20 0.21 0.21 0.18 0.18 0.15 0.16 0.16 0.16 0.14 0.16 0.16 0.16 0.19 0.19 0.24 0.21 0.22 0.21 0.18 0.19 0.14 0.12 0.11 0.12 0.13 0.12 0.14 0.14 0.15 0.15 0.15 0.15 0.15 0.14 0.14 0.13 0.14 0.15 0.14 0.14 0.15 0.13 0.10 0.08 0.09 0.09 0.08 0.07 0.08 0.09 0.10 0.10 0.08 0.09 0.09 0.09 0.10 0.11 0.12 0.12 0.13 0.14 0.15
0.14 0.14 0.14 0.18 0.09 0.11 0.11 0.11 0.14 0.12 0.12 0.12 0.12 0.13 0.11 0.12 0.12 0.14 0.15 0.16 0.17 0.18 0.20 0.16 0.18 0.20 0.21 0.22 0.19 0.16 0.17 0.14 0.14 0.16 0.15 0.15 0.16 0.16 0.15 0.19 0.21 0.22 0.19 0.17 0.17 0.17 0.13 0.12 0.13 0.14 0.13 0.13 0.14 0.14 0.14 0.13 0.13 0.13 0.14 0.14 0.14 0.15 0.16 0.15 0.14 0.13 0.12 0.10 0.09 0.08 0.08 0.07 0.08 0.08 0.10 0.11 0.10 0.10 0.09 0.10 0.10 0.10 0.11 0.12 0.12 0.13 0.14 0.15
0.09 0.09 0.09 0.14 0.13 0.12 0.12 0.13 0.12 0.12 0.11 0.14 0.11 0.12 0.12 0.12 0.12 0.15 0.17 0.16 0.15 0.17 0.21 0.18 0.19 0.21 0.22 0.21 0.20 0.17 0.17 0.18 0.17 0.14 0.17 0.16 0.16 0.17 0.15 0.16 0.17 0.20 0.19 0.16 0.16 0.18 0.13 0.11 0.14 0.14 0.12 0.12 0.13 0.14 0.13 0.13 0.13 0.12 0.15 0.14 0.15 0.15 0.14 0.14 0.13 0.11 0.10 0.09 0.08 0.08 0.08 0.08 0.09 0.11 0.10 0.10 0.09 0.10 0.10 0.10 0.10 0.10 0.11 0.12 0.13 0.13 0.14 0.15
0.12 0.13 0.12 0.09 0.08 0.10 0.12 0.11 0.11 0.11 0.10 0.12 0.11 0.12 0.14 0.14 0.14 0.16 0.16 0.20 0.18 0.17 0.19 0.18 0.21 0.22 0.24 0.22 0.20 0.19 0.21 0.20 0.19 0.19 0.20 0.19 0.14 0.18 0.16 0.16 0.21 0.16 0.17 0.16 0.16 0.16 0.15 0.12 0.15 0.14 0.12 0.11 0.12 0.12 0.12 0.12 0.13 0.13 0.12 0.14 0.13 0.12 0.11 0.12 0.11 0.11 0.09 0.08 0.08 0.08 0.07 0.07 0.10 0.10 0.10 0.09 0.09 0.09 0.09 0.10 0.10 0.10 0.11 0.12 0.13 0.13 0.15 0.16
0.14 0.15 0.15 0.11 0.08 0.11 0.09 0.11 0.12 0.10 0.09 0.12 0.13 0.14 0.12 0.13 0.17 0.19 0.15 0.20 0.22 0.23 0.22 0.22 0.22 0.22 0.21 0.20 0.19 0.20 0.23 0.22 0.22 0.23 0.24 0.24 0.25 0.24 0.25 0.23 0.22 0.18 0.16 0.16 0.17 0.15 0.15 0.13 0.12 0.13 0.11 0.11 0.12 0.13 0.12 0.12 0.12 0.11 0.12 0.12 0.13 0.13 0.12 0.11 0.10 0.10 0.09 0.09 0.08 0.07 0.07 0.09 0.10 0.10 0.09 0.08 0.08 0.09 0.10 0.10 0.11 0.12 0.12 0.13 0.13 0.14 0.15 0.15
Wind_Speed
12 11 11 10 9 8 7 6 6 5 5 5 5 5 5 5 5 5 5 6 6 7 7 6 6 6 5 5 5 6 6 6 6 7 7 8 10 11 12 11 11 11 12 12 11 11 11 11 11 11 11 11 11 10 10 10 10 11 12 13 13 14 14 14 14 14 15 16 16 16 16 17 18 17 18 19 18 20 21 20 20 20 21 23 24 25 25 25
11 11 11 10 9 8 7 6 6 5 5 5 5 5 5 5 5 5 4 5 6 6 6 5 5 5 4 4 5 5 5 5 6 7 8 10 11 12 12 12 11 12 12 12 12 11 11 11 11 11 10 10 10 10 10 10 10 11 11 12 12 12 12 13 14 14 14 16 17 16 15 16 17 17 18 18 18 19 20 20 20 20 20 21 22 22 22 22
11 11 10 10 9 7 7 6 5 5 4 4 4 4 4 4 4 4 4 4 5 5 6 6 5 5 5 5 5 5 5 6 7 9 10 11 12 12 12 12 12 12 12 11 11 11 11 11 10 10 9 9 9 9 9 10 10 10 10 11 11 11 12 12 13 13 13 15 16 16 16 16 16 17 18 18 19 18 18 19 19 19 20 21 21 22 21 20
11 11 10 9 8 7 6 5 5 4 4 4 4 4 4 4 4 3 3 4 4 5 6 6 6 5 6 6 7 6 6 7 9 11 12 12 13 13 13 12 12 12 11 10 10 10 10 9 9 9 9 8 8 9 9 9 10 9 10 11 10 11 12 11 12 13 14 15 16 17 16 15 15 16 17 17 17 17 18 19 19 19 20 20 21 21 21 20
11 10 9 8 7 6 5 4 4 4 3 3 3 3 3 3 2 2 3 4 5 5 6 7 6 5 6 7 7 6 7 8 10 12 12 13 13 13 12 12 12 11 9 9 10 10 9 9 8 8 8 8 8 8 9 9 9 9 9 10 9 11 12 12 13 14 15 15 16 16 15 15 15 15 16 16 16 16 18 19 19 19 19 19 20 20 20 20
11 10 9 8 7 6 5 4 3 3 3 2 2 2 2 2 1 2 3 4 5 5 6 7 6 5 6 6 5 5 6 8 10 12 12 13 12 12 11 11 10 9 9 9 9 9 9 9 8 8 8 8 8 9 8 8 9 9 9 9 10 11 12 13 14 14 14 15 16 17 16 15 14 14 16 15 16 17 18 19 19 19 19 19 19 19 20 20
10 9 8 7 6 5 4 4 3 2 1 1 1 1 1 1 1 2 3 4 5 5 6 7 6 5 6 6 6 6 6 8 10 11 12 12 11 10 9 9 9 8 9 9 9 9 8 9 8 8 8 8 8 9 8 9 9 10 9 10 11 11 12 14 14 14 14 14 17 17 16 15 12 13 15 16 17 18 19 19 19 19 19 19 20 20 20 21
10 9 8 7 6 5 4 3 2 1 1 1 1 1 1 1 1 2 3 4 4 5 7 7 6 6 6 6 6 7 8 9 11 11 10 10 9 9 8 8 9 9 9 9 10 9 8 9 9 8 8 8 9 9 9 9 9 9 10 11 11 11 13 15 14 14 14 15 18 17 14 14 12 12 15 17 18 19 19 20 20 20 20 20 20 21 22 22
10 9 8 7 6 4 3 2 2 1 1 1 1 1 1 1 2 3 4 4 5 6 7 8 7 6 5 5 5 6 8 9 10 10 10 9 8 8 8 8 9 9 10 10 10 10 9 9 9 9 8 9 9 9 10 10 10 10 11 12 12 12 13 15 14 14 15 15 18 17 14 15 14 14 16 18 19 20 20 20 21 21 21 21 21 22 23 23
9 8 7 6 5 4 3 2 2 2 2 2 1 1 1 2 2 3 4 5 5 6 7 7 7 6 4 4 5 6 7 8 10 10 10 9 8 8 9 9 9 10 10 10 11 11 10 10 11 10 9 9 9 9 10 11 11 11 12 12 12 12 13 15 14 15 16 15 17 16 14 16 16 16 17 20 21 21 21 21 22 22 22 22 22 23 23 24
9 8 7 6 5 4 3 2 2 2 2 2 2 2 2 2 3 4 4 5 5 5 5 6 7 8 8 8 8 7 8 10 11 11 10 9 8 8 9 9 9 10 10 10 11 12 11 11 12 11 10 10 10 9 10 12 11 11 12 11 12 11 12 15 15 16 17 16 17 15 15 18 17 17 19 22 23 21 21 21 22 22 22 23 23 23 23 24
9 8 6 5 4 3 3 2 2 2 2 2 2 2 2 3 3 4 4 4 5 6 7 7 7 8 9 10 11 8 9 11 11 11 11 9 9 9 10 9 9 10 10 11 11 12 12 11 13 13 11 11 10 9 10 12 12 12 13 12 12 12 13 16 16 17 17 18 20 17 16 19 18 19 21 22 22 22 21 21 22 22 23 23 23 24 24 24
8 7 6 5 4 3 3 2 2 3 2 2 2 2 3 3 4 4 5 6 7 7 7 8 8 8 8 9 9 9 10 11 11 10 11 10 9 9 10 9 9 10 11 11 11 12 13 12 12 13 12 11 10 10 10 12 13 12 12 13 14 14 15 17 17 19 18 18 21 19 18 18 18 20 22 23 23 22 21 21 23 23 24 24 24 24 24 25
8 7 5 4 4 3 3 3 3 3 3 3 3 4 5 5 6 6 7 7 7 7 7 8 8 8 9 8 8 11 11 11 12 11 11 11 10 9 10 10 10 11 11 11 11 11 12 13 12 12 13 12 11 11 12 13 14 14 13 14 15 16 17 17 17 19 19 18 22 21 19 18 19 21 23 23 23 22 22 23 24 24 24 25 25 25 25 26
7 6 5 4 4 3 3 4 4 4 5 5 6 7 7 7 8 8 8 8 8 8 8 8 8 7 9 8 8 11 12 12 14 13 12 12 11 10 10 11 10 11 11 11 11 11 12 13 13 13 13 13 12 12 13 13 14 15 15 16 17 17 19 18 16 18 20 20 22 21 19 19 19 21 23 24 23 23 23 24 24 25 25 25 25 25 25 26
7 6 5 5 5 5 5 5 6 7 7 8 9 9 9 9 9 9 9 9 9 10 9 9 9 8 8 9 10 12 13 14 15 14 12 12 12 11 10 10 10 10 12 12 12 12 13 13 14 14 14 14 14 15 15 14 16 17 16 17 18 19 20 19 16 17 21 21 21 21 20 20 21 22 23 24 24 24 25 25 25 25 25 25 25 25 25 27
7 7 6 6 6 7 7 8 8 9 10 11 11 11 11 11 10 9 9 9 9 10 10 10 9 8 10 10 10 12 14 14 15 15 13 12 12 12 10 9 10 11 12 13 13 13 13 14 14 14 15 16 17 17 16 16 18 18 17 18 18 19 21 21 19 19 22 23 22 21 20 21 21 22 23 24 25 26 26 26 26 25 25 25 25 25 26 28
9 8 8 8 8 9 9 9 10 11 12 13 13 13 14 14 13 11 9 9 8 8 10 11 9 8 10 12 12 12 13 14 15 15 13 12 12 12 11 10 10 11 12 13 14 15 14 14 14 14 15 17 18 18 17 17 19 19 19 19 19 20 21 23 23 21 23 24 22 22 21 20 21 22 23 25 26 26 27 27 27 26 26 26 26 27 28 30
11 11 10 10 10 10 10 11 12 12 12 12 13 13 13 13 14 15 14 12 11 9 9 11 11 9 10 13 13 11 11 13 15 16 14 12 11 12 12 12 12 12 12 13 15 16 15 15 15 16 17 18 18 18 17 17 18 19 19 20 21 22 22 23 24 22 24 25 23 23 22 21 21 23 24 26 26 27 28 28 28 27 27 27 28 29 31 33
13 12 12 12 12 12 12 13 12 12 11 10 10 10 10 10 10 12 13 14 13 12 11 11 12 11 10 12 14 13 11 12 15 17 17 13 11 12 13 13 13 13 13 14 15 16 15 15 16 17 17 18 18 17 17 17 18 18 18 20 22 23 23 25 24 22 24 26 24 22 22 22 23 24 25 26 27 27 28 29 29 29 28 29 30 32 34 36
14 14 14 14 14 13 14 13 12 11 11 11 10 10 10 9 9 10 11 12 12 12 13 12 12 11 11 12 14 14 11 11 15 18 19 16 12 12 15 15 13 14 14 14 14 15 15 16 17 17 17 18 18 17 17 18 18 18 19 21 22 23 25 26 25 22 24 27 25 22 23 24 24 25 26 27 27 28 29 29 30 30 30 31 33 35 37 38
15 15 15 15 14 14 14 14 13 13 12 12 12 12 12 10 11 11 10 12 12 12 12 12 13 13 11 11 14 14 11 12 16 20 20 18 15 14 15 15 14 14 14 13 13 14 16 17 17 18 17 17 17 17 18 19 19 19 19 22 23 25 27 27 24 23 25 28 26 24 25 26 25 25 26 27 28 28 29 30 31 32 33 34 36 38 39 40
16 15 15 15 15 15 14 14 14 14 13 13 12 12 11 11 11 10 10 11 11 11 12 12 13 15 13 12 13 15 15 14 15 20 21 19 17 15 15 15 14 13 14 15 15 15 15 16 17 17 17 17 17 18 19 20 19 19 21 23 25 26 28 27 26 26 28 28 26 26 28 27 25 26 27 27 28 29 30 31 32 34 35 37 38 39 40 42
16 16 15 15 15 14 14 14 13 13 13 12 12 10 9 9 9 8 9 9 10 11 12 12 13 15 15 13 14 14 15 16 15 19 21 20 17 15 15 15 14 14 14 15 15 15 14 15 16 16 17 18 18 19 21 22 21 20 21 24 26 28 28 28 29 31 30 26 26 28 29 28 25 26 28 28 29 30 31 33 34 35 36 37 38 39 41 42
16 16 15 15 14 13 12 13 12 12 11 11 10 9 8 8 7 7 8 9 10 11 12 12 12 14 15 14 14 12 12 15 17 19 20 20 18 15 15 15 15 15 14 14 15 14 14 14 16 17 18 19 20 20 21 22 22 20 21 24 27 29 30 30 31 31 29 26 26 28 29 29 27 28 29 28 29 31 32 34 35 36 38 39 40 41 43 44
16 15 15 14 13 11 11 11 11 10 9 9 9 8 7 7 6 7 7 9 10 11 12 12 12 14 15 16 16 12 11 15 17 19 20 20 18 16 15 16 15 15 14 14 14 14 14 14 15 17 19 20 21 21 21 22 23 22 22 25 28 29 30 31 30 29 29 29 28 27 28 31 31 30 29 29 30 32 34 35 37 38 40 41 42 44 45 47
15 14 13 12 12 11 11 10 9 8 8 8 8 7 7 6 6 6 5 8 10 11 12 12 12 14 15 16 17 13 12 16 17 19 22 20 18 17 16 16 16 15 15 14 14 14 15 16 16 18 20 22 23 23 22 23 23 23 25 27 30 30 30 31 28 27 29 31 28 25 27 32 34 32 29 31 33 34 35 37 38 40 42 43 45 46 47 48
13 12 11 11 11 11 11 9 8 8 7 8 7 7 7 7 7 6 6 7 9 10 11 12 12 14 15 16 18 16 14 17 17 19 22 21 19 17 16 17 16 16 16 15 14 15 16 17 18 20 22 23 24 24 23 23 23 25 27 30 31 30 30 28 26 27 30 30 27 26 28 32 35 34 31 32 34 35 37 39 40 42 44 45 47 47 48 48
12 11 11 10 10 11 10 9 8 7 7 7 7 7 7 7 7 7 7 7 8 10 10 12 13 15 17 15 17 18 16 17 18 19 22 22 21 18 16 17 16 15 17 17 16 16 16 17 18 19 22 23 24 24 23 23 25 27 29 32 30 28 28 26 26 30 30 27 28 29 30 33 36 37 34 33 34 35 38 40 42 44 45 46 47 48 49 50
12 11 10 9 9 8 8 7 7 7 7 8 8 7 8 8 7 7 9 8 8 10 11 12 13 15 17 16 16 18 18 18 19 19 20 20 22 20 16 15 15 14 15 16 16 16 16 17 18 19 21 23 25 24 23 23 26 28 30 34 32 28 28 26 26 31 29 27 30 32 32 34 36 36 34 33 34 36 40 42 43 45 46 47 47 48 50 51
12 11 9 8 7 7 6 7 7 7 8 8 8 8 8 8 8 8 9 8 8 11 11 13 13 15 17 16 16 18 18 18 19 20 19 18 20 22 18 16 16 15 15 17 19 18 16 17 19 20 22 24 25 25 24 24 26 29 32 35 33 30 30 27 28 30 29 30 34 36 36 35 34 34 34 34 35 37 41 43 44 46 47 48 49 51 52 53
11 11 10 8 7 6 7 7 8 8 8 8 8 8 8 9 10 9 8 8 9 11 12 13 14 15 17 16 16 18 18 18 19 19 19 19 19 21 20 20 20 18 19 20 21 20 17 17 20 20 22 25 26 27 25 25 28 30 33 35 33 32 31 30 31 32 31 33 36 39 40 36 34 35 34 35 38 39 42 43 44 46 48 50 53 54 54 55
10 10 10 9 8 8 9 9 9 9 9 8 8 8 8 9 10 9 9 9 9 11 12 13 14 16 16 16 17 18 17 18 20 19 18 18 19 20 19 21 21 19 20 21 22 23 19 18 21 22 23 26 28 28 28 28 30 31 33 34 32 31 31 31 32 33 34 36 40 43 40 35 36 37 36 37 39 41 43 44 45 48 51 53 55 55 55 57
12 11 11 11 11 11 11 10 10 10 9 9 9 9 10 10 9 9 9 10 10 12 13 13 15 16 16 17 18 18 17 17 19 19 19 19 19 20 20 22 23 21 21 20 21 23 22 20 22 23 24 27 28 27 28 29 28 29 32 31 30 29 29 29 31 33 36 39 43 43 37 35 38 38 37 38 39 41 44 45 47 50 52 53 54 56 57 57
12 12 12 13 13 13 12 11 11 10 9 10 10 10 11 10 8 8 10 11 11 13 13 13 15 16 16 17 17 18 17 18 19 19 19 19 19 21 21 22 23 22 21 21 20 22 23 21 22 23 25 28 28 27 27 28 27 28 31 30 31 31 28 29 32 34 37 39 40 38 36 37 39 38 38 38 39 43 46 48 51 53 53 56 58 58 57 55
12 13 14 14 13 12 11 11 11 10 10 10 11 11 10 9 9 9 10 12 12 13 14 13 15 16 16 17 18 18 18 18 19 19 19 19 19 21 21 21 22 23 22 22 21 22 23 23 22 23 25 27 27 27 27 29 28 29 31 32 33 32 28 30 34 36 37 36 36 38 40 41 40 38 37 37 42 47 49 51 53 54 58 61 60 57 55 54
13 14 15 15 14 13 12 12 11 10 11 11 11 11 10 10 10 11 11 12 12 13 14 14 15 17 17 18 18 20 19 18 20 20 19 19 19 20 22 21 21 22 23 22 22 22 23 24 23 24 26 27 26 26 27 28 30 30 32 34 34 30 27 29 33 36 36 35 37 40 43 45 42 38 37 40 47 49 50 52 55 58 62 61 57 56 55 54
14 15 15 15 14 13 13 13 11 11 12 12 11 11 10 11 11 11 11 12 12 14 15 15 16 17 17 18 19 21 21 20 21 21 20 20 20 20 22 22 21 22 23 22 22 23 24 24 23 24 28 28 26 26 27 28 30 30 31 34 33 30 29 32 33 35 36 37 39 41 45 45 41 39 41 46 49 49 51 55 58 61 61 57 56 56 56 55
13 13 14 14 14 14 13 12 11 11 12 12 11 11 11 11 11 11 12 13 13 14 15 16 16 17 17 19 19 20 21 20 21 21 21 22 21 21 22 22 22 23 23 23 23 24 24 23 23 25 28 28 27 28 29 29 30 31 32 33 32 31 32 33 33 34 36 38 40 43 45 42 40 42 44 46 48 51 56 59 60 60 59 56 56 57 56 54
12 12 12 13 14 14 13 13 13 13 12 12 12 11 11 11 12 12 13 14 14 15 16 16 16 17 18 19 19 21 21 20 21 21 21 22 22 21 22 22 23 23 24 23 23 25 24 23 25 28 28 28 28 28 30 31 31 33 34 34 34 33 33 34 34 33 35 37 40 43 45 44 42 42 43 46 50 55 60 61 59 58 58 58 59 58 55 51
12 12 11 12 12 12 12 13 14 13 12 12 12 12 12 12 12 13 14 14 14 15 16 16 17 18 19 19 19 20 21 20 20 21 22 22 23 22 22 23 23 23 24 23 23 26 25 24 27 30 30 30 29 29 30 31 32 34 35 34 34 35 36 36 35 35 35 36 39 42 45 47 43 39 43 49 54 59 61 60 59 59 61 60 59 56 52 48
12 12 11 12 13 11 11 13 13 13 13 13 13 13 12 13 13 13 14 14 15 16 16 17 18 18 18 19 20 20 21 21 20 21 22 22 23 23 24 25 24 23 23 23 24 26 26 25 28 30 30 30 29 29 30 31 32 34 34 34 35 35 36 36 37 39 39 39 41 42 45 47 42 40 48 54 58 61 60 59 60 61 61 60 57 54 50 46
13 12 12 13 12 12 12 13 12 13 13 12 12 13 13 13 13 14 14 15 16 16 17 17 18 18 19 20 20 20 21 21 20 22 23 22 23 23 24 26 25 23 23 23 24 26 26 26 29 31 31 30 28 29 30 30 32 34 34 34 35 36 38 38 38 40 41 42 42 41 43 47 46 47 54 59 62 61 58 59 62 62 60 57 55 52 48 45
14 14 13 13 12 12 12 12 12 13 13 12 13 14 14 14 14 15 15 16 17 17 17 18 18 19 20 20 20 21 22 22 21 22 23 23 23 23 24 26 25 24 24 24 25 27 26 26 29 31 32 32 31 31 32 33 34 36 35 34 35 37 39 39 40 40 40 42 43 41 44 51 53 55 58 61 62 60 58 61 63 61 57 55 53 49 46 44
13 14 14 15 15 14 13 12 12 13 13 13 14 15 14 14 15 16 16 16 17 17 18 19 19 20 20 20 21 21 22 23 22 22 23 23 23 23 24 26 25 24 24 25 26 28 26 26 29 30 30 31 32 32 34 36 37 37 36 35 36 38 39 40 41 41 41 45 46 43 47 56 60 60 61 61 59 58 60 62 61 58 56 54 51 47 44 43
12 12 13 14 16 16 15 14 13 13 13 13 15 15 15 15 15 16 16 17 17 18 19 19 20 20 20 21 21 21 21 22 22 22 23 24 23 23 24 25 25 24 25 26 27 27 26 26 29 30 29 30 32 34 36 38 38 38 39 39 37 38 39 40 40 41 44 49 49 47 51 60 64 64 63 61 58 59 61 62 59 56 55 53 50 46 43 42
13 12 11 11 13 14 14 14 14 14 13 13 14 15 15 16 16 16 17 17 18 19 19 20 21 21 21 22 22 21 22 22 22 22 23 23 23 23 23 24 25 25 25 26 28 28 27 27 29 31 31 31 33 36 38 37 37 39 40 39 38 39 40 40 40 43 46 47 49 53 58 61 64 65 63 59 58 60 61 60 58 55 54 52 48 46 44 43
13 12 12 11 11 12 12 13 14 14 15 14 15 15 16 16 17 17 17 18 19 19 20 20 21 22 22 22 23 23 24 23 23 22 23 23 23 23 23 24 24 26 25 26 28 29 27 28 30 31 32 33 33 36 38 38 38 37 37 39 40 40 40 41 43 46 47 47 51 59 62 62 63 64 61 59 60 62 60 59 57 55 53 51 48 46 44 41
13 13 12 12 12 11 11 12 13 14 15 15 15 15 16 16 17 17 18 18 19 20 21 21 22 23 22 22 23 23 24 25 24 24 23 23 24 24 24 23 23 25 26 27 28 29 28 30 32 32 34 35 35 36 39 39 38 36 35 37 40 41 42 44 46 49 50 51 55 60 62 62 61 60 59 61 62 61 59 58 57 55 53 50 47 45 43 40
12 12 12 12 13 12 12 12 13 13 14 15 15 16 16 16 17 18 18 19 20 21 21 22 23 23 22 22 23 24 25 25 25 25 24 24 24 24 24 24 24 25 27 28 28 29 31 32 32 33 34 34 36 39 40 39 37 35 35 38 42 44 45 46 48 51 54 56 59 60 61 60 58 57 61 64 63 60 59 58 56 53 51 49 47 44 42 40
13 13 12 13 13 13 13 13 13 13 14 15 15 16 16 17 18 18 19 19 20 21 22 22 22 22 22 22 23 24 25 25 25 25 25 24 24 24 24 24 24 25 27 28 29 31 32 33 33 34 35 35 38 43 44 40 34 31 35 41 44 46 48 48 49 51 55 58 61 61 60 58 58 61 66 66 63 61 59 57 54 51 49 48 45 42 41 42
14 13 12 12 13 13 13 13 14 14 15 15 16 16 17 18 18 19 19 20 20 21 22 22 22 22 22 23 23 24 25 25 25 25 25 24 23 24 25 24 24 26 27 28 29 31 33 34 35 36 36 37 42 45 43 39 34 33 37 43 45 47 50 52 53 54 56 56 57 58 58 58 61 65 66 65 63 60 56 54 53 51 48 46 43 42 42 43
Wind_Direction
187 189 192 195 199 204 209 214 218 225 234 242 253 261 270 278 285 293 302 314 322 328 329 333 334 324 312 307 313 317 324 328 332 341 338 327 322 321 320 318 316 315 315 313 313 311 307 305 307 305 299 298 301 300 299 300 298 293 293 293 292 295 299 301 300 300 298 298 302 302 301 300 299 299 298 296 288 290 296 299 301 298 298 299 300 300 299 298
185 187 190 194 199 205 209 212 216 222 232 241 251 259 270 280 289 298 309 322 331 334 334 339 344 336 323 317 314 311 314 320 335 348 340 328 327 326 323 322 319 318 316 315 317 316 312 310 309 308 302 300 303 302 300 303 302 298 299 297 298 305 305 307 307 306 302 301 304 304 302 300 301 301 299 299 298 302 306 307 310 308 307 308 308 309 309 308
183 185 187 191 196 200 204 207 212 220 230 240 249 259 271 284 294 302 313 326 342 345 337 334 332 322 317 313 308 302 297 310 334 341 332 327 328 327 325 322 321 320 317 316 317 316 316 314 312 312 307 307 310 308 305 308 307 306 305 301 307 311 307 311 311 309 306 304 306 305 302 300 303 301 300 302 302 308 313 310 312 312 312 312 313 316 316 317
180 181 183 186 190 193 196 201 207 219 231 242 251 262 276 289 299 306 318 326 338 338 331 329 324 315 311 305 300 292 286 304 330 329 324 328 327 327 327 324 323 321 317 317 319 319 318 317 318 318 313 314 317 312 311 315 313 309 308 308 315 312 308 317 316 312 310 306 305 303 302 303 305 304 307 310 305 306 313 312 313 312 312 313 313 316 317 320
176 177 179 181 184 186 189 195 205 219 231 243 255 270 286 299 304 313 322 325 329 326 323 322 320 320 319 314 303 288 287 304 323 324 326 329 328 329 330 329 328 326 324 324 326 326 326 325 324 323 321 320 318 315 317 320 317 312 315 319 321 316 314 320 319 315 312 306 304 303 307 306 305 309 315 318 310 307 311 311 312 312 312 313 312 315 319 322
173 174 176 177 178 179 183 192 202 215 230 248 266 287 308 320 315 319 322 323 326 323 323 321 315 317 329 338 327 304 307 316 322 325 329 330 330 333 334 337 337 336 336 335 336 335 337 335 331 330 327 326 324 323 324 325 323 317 321 327 324 321 320 321 320 317 312 309 310 309 309 305 305 314 318 320 316 311 312 310 310 311 312 313 315 318 321 321
169 172 172 172 171 172 177 186 195 207 224 259 313 336 344 340 321 320 323 325 330 331 330 327 317 310 322 339 343 348 348 337 330 330 331 332 334 338 341 349 351 352 353 351 349 347 347 346 344 337 332 334 330 329 330 327 326 320 320 325 323 319 319 321 320 318 314 315 317 310 307 308 310 314 317 321 319 314 313 311 310 310 310 314 319 321 321 320
168 168 167 166 163 165 169 172 173 164 120 59 31 13 0 334 324 322 326 329 336 342 340 336 325 311 316 322 333 0 2 346 340 339 338 338 343 347 353 1 3 4 4 3 358 353 353 352 349 338 334 340 333 330 331 325 324 322 322 324 321 317 319 322 321 319 317 317 318 311 314 320 312 313 322 321 316 315 313 311 311 310 311 315 318 319 318 319
165 163 161 158 157 158 154 147 130 105 82 62 48 37 22 346 334 328 333 333 338 347 348 348 341 322 320 327 344 10 4 352 351 351 352 352 354 1 6 7 6 7 7 7 3 359 356 353 349 340 339 343 336 333 330 325 328 326 326 326 322 321 325 327 324 321 318 317 321 318 321 322 307 306 318 319 314 312 312 312 312 311 313 314 314 315 316 318
160 157 154 152 151 147 136 124 104 87 77 61 47 33 16 353 345 342 342 341 342 346 352 2 9 12 14 19 35 34 13 4 4 4 5 3 5 9 10 7 5 6 7 6 4 3 360 356 351 343 343 345 337 336 333 329 331 328 327 328 326 324 329 330 323 322 317 314 323 322 320 320 310 307 311 313 312 309 311 314 313 313 313 312 312 314 315 318
154 152 148 147 144 136 126 109 88 76 68 49 32 19 5 356 354 352 352 355 2 9 17 27 36 46 51 50 52 43 21 14 12 12 13 11 13 12 7 4 2 4 4 5 6 4 0 357 354 347 339 340 337 337 337 334 330 326 324 327 328 323 327 331 323 320 317 315 321 315 315 320 316 313 312 311 310 308 311 314 314 314 313 311 311 313 315 318
148 147 145 145 142 133 119 98 77 63 55 40 27 15 3 3 7 13 23 37 46 48 48 48 47 51 51 50 50 39 25 19 13 13 15 14 14 10 6 3 3 5 4 5 5 2 360 353 353 354 343 336 338 336 334 335 331 326 324 324 327 319 321 331 326 321 318 320 322 308 306 317 317 315 314 312 311 308 310 313 314 312 310 309 309 310 312 315
145 147 147 146 141 128 109 87 71 61 55 49 39 34 36 42 48 55 60 64 61 58 57 53 52 54 51 50 45 34 25 18 12 12 12 11 9 6 8 8 7 6 5 6 1 357 360 355 353 356 350 341 339 334 331 333 330 327 324 321 324 320 322 331 328 322 319 320 323 312 304 312 315 316 315 313 313 310 311 314 312 310 308 307 307 307 309 312
147 148 148 144 134 120 102 86 76 67 64 66 65 67 70 71 74 75 74 71 63 59 58 54 52 52 49 50 41 28 21 16 14 12 8 8 6 7 9 8 7 5 4 5 1 355 356 358 358 354 351 347 338 332 330 329 328 327 323 321 327 326 327 332 328 325 324 319 322 317 306 308 312 315 314 313 313 312 314 314 312 310 308 307 306 307 307 310
149 146 141 134 123 110 100 93 86 80 78 78 78 78 79 80 81 82 79 71 63 60 60 54 49 48 47 46 34 22 18 16 15 11 8 8 7 7 6 6 8 8 6 2 358 355 351 353 357 351 346 343 337 333 329 325 329 332 329 326 330 328 325 328 325 327 326 319 322 320 310 308 312 314 314 313 312 312 314 314 312 311 310 308 307 306 306 308
144 138 131 123 114 106 104 102 94 87 85 84 83 83 83 85 84 82 78 73 67 61 59 55 47 46 45 35 23 20 20 17 13 10 10 10 6 4 2 5 8 7 5 1 355 352 350 349 350 347 343 340 337 332 329 330 335 338 335 330 328 327 325 326 324 326 326 321 323 324 315 310 312 314 314 314 314 313 314 314 312 311 310 308 306 305 307 308
136 131 124 118 112 110 110 104 95 90 90 89 86 84 83 82 82 82 78 73 70 61 55 50 45 49 45 31 22 19 17 16 13 10 10 11 8 5 2 0 359 357 357 358 355 350 349 347 343 342 344 345 340 335 336 339 336 335 335 330 327 326 325 325 324 327 328 325 324 324 319 314 313 314 314 315 315 315 315 315 312 310 309 309 306 306 308 310
131 127 121 117 114 113 109 102 98 97 95 92 89 86 84 79 77 78 77 74 69 61 53 43 39 51 40 25 20 13 10 13 13 11 10 12 11 10 9 2 351 348 349 353 354 349 345 343 338 338 344 347 345 345 347 341 333 332 333 331 330 328 328 326 326 330 330 326 323 323 321 317 315 314 315 316 316 317 317 314 312 310 309 309 307 306 308 310
126 123 119 115 112 109 105 102 102 100 96 93 91 89 86 81 75 70 67 67 65 60 52 38 37 50 34 18 16 10 9 15 16 15 13 11 11 11 10 4 356 352 349 347 350 348 342 340 342 346 349 348 347 349 350 342 334 332 331 331 329 328 329 326 325 331 330 324 322 323 320 317 315 315 316 316 316 318 317 315 313 311 309 309 308 307 307 309
121 118 114 110 106 103 103 104 102 97 93 94 92 88 87 83 74 66 61 64 65 60 56 45 41 45 33 21 16 12 14 18 19 18 14 9 6 5 3 358 356 358 351 342 345 346 343 348 354 354 350 347 347 347 346 343 338 334 332 332 329 327 329 327 327 332 331 325 322 322 319 317 316 317 317 317 317 319 318 317 315 312 310 309 308 308 308 308
116 113 110 106 102 100 102 102 97 92 91 91 91 87 87 82 77 75 69 67 64 55 52 46 40 39 32 27 22 18 20 20 19 18 14 10 4 360 359 354 352 355 349 340 343 344 348 359 359 352 348 347 348 346 344 342 340 337 334 333 332 331 329 327 328 332 332 328 323 320 318 316 317 317 318 319 319 320 319 317 315 313 311 309 308 309 309 308
113 111 108 104 100 99 98 97 93 92 92 90 90 88 86 82 79 78 75 71 61 50 47 41 37 35 31 31 27 23 23 17 14 14 11 8 6 2 357 355 355 352 346 344 346 348 357 2 356 351 350 348 348 346 341 340 339 338 336 334 334 334 330 327 329 331 329 327 323 319 316 315 316 317 318 320 319 318 317 315 314 313 312 310 309 309 309 309
112 110 107 104 102 99 97 96 94 92 89 87 86 85 85 82 80 74 69 68 59 47 42 39 37 33 29 29 24 22 26 19 7 6 5 3 4 3 356 356 355 350 347 349 352 354 358 357 353 352 349 345 345 345 341 339 340 339 338 337 334 335 332 329 330 329 326 324 322 319 316 314 316 317 317 317 317 315 314 313 312 312 311 311 310 309 309 309
110 108 106 104 102 99 99 99 96 91 85 81 80 81 83 81 76 70 62 60 55 46 42 40 37 32 28 24 17 18 24 19 7 2 2 1 359 355 355 355 351 351 350 347 351 358 358 351 349 349 346 343 343 344 344 342 341 339 338 338 334 332 330 325 325 326 324 324 322 320 316 315 315 314 315 316 314 314 313 313 312 312 312 311 310 310 309 309
110 108 105 102 100 98 102 102 96 91 83 77 75 73 76 75 71 67 59 57 53 44 40 39 35 29 24 18 14 13 14 13 8 3 1 1 358 353 353 353 351 353 349 343 347 354 354 346 344 345 344 343 343 345 346 341 339 338 338 337 332 329 327 323 324 326 326 326 326 324 320 319 317 313 315 317 314 314 314 313 313 313 312 311 311 310 309 309
110 107 103 99 94 95 105 104 93 88 78 68 66 66 68 67 68 68 61 57 50 38 32 30 28 23 17 12 8 5 6 6 5 4 2 1 358 353 353 352 352 352 344 341 345 346 346 341 340 343 341 342 345 346 344 339 337 337 336 334 330 328 325 324 327 327 327 327 326 324 320 319 319 316 315 317 315 315 315 314 314 314 313 313 311 311 310 310
110 106 102 96 90 92 105 103 90 83 72 62 59 61 63 61 65 65 58 54 43 32 26 22 20 17 13 10 6 5 5 358 357 4 3 0 357 354 355 352 351 352 345 339 342 343 341 339 341 342 343 345 345 344 341 338 336 335 334 331 329 327 326 326 328 326 326 326 324 324 321 318 319 320 319 316 316 316 316 316 316 316 315 314 312 312 312 312
109 106 102 97 90 90 97 95 85 76 64 58 57 61 65 63 65 62 61 57 34 25 24 18 16 14 9 8 9 12 7 356 356 360 359 360 358 354 357 355 352 352 349 342 343 344 339 341 342 341 345 347 343 341 339 336 335 334 331 330 328 327 328 328 327 326 327 327 325 326 326 320 318 322 321 317 317 317 318 318 317 317 316 315 314 314 313 313
106 105 102 98 93 89 88 84 76 69 60 57 62 67 67 63 66 61 60 55 29 22 22 15 12 10 5 5 9 10 3 360 360 355 356 1 0 356 356 356 355 354 351 348 347 344 339 341 340 338 345 345 340 340 339 336 335 331 327 328 328 328 330 329 327 328 327 326 327 328 327 323 319 321 321 319 320 320 320 319 318 317 317 316 316 314 314 313
102 102 100 98 94 86 80 72 64 62 61 62 66 68 65 62 64 58 49 42 26 19 15 13 10 5 3 3 4 3 360 359 357 353 356 360 1 2 358 352 353 353 351 353 352 346 340 341 340 339 344 343 338 339 340 336 333 329 328 331 332 330 331 329 328 331 328 327 329 328 326 325 321 322 324 323 323 322 320 319 318 318 317 317 316 315 315 314
94 93 92 90 85 75 69 66 64 67 69 70 70 66 65 60 55 54 45 30 20 14 12 13 9 5 5 4 0 358 357 356 355 355 356 356 359 3 360 354 353 353 354 356 355 350 343 342 343 341 341 340 337 338 339 336 333 333 335 338 336 333 332 330 329 333 332 329 330 329 328 325 321 324 327 325 322 321 321 320 319 318 318 318 317 316 316 314
85 81 77 74 72 67 70 74 75 77 76 74 71 65 64 57 46 44 34 18 14 14 12 10 5 4 3 1 358 355 354 356 356 357 357 355 358 1 1 358 354 352 354 354 352 350 347 344 344 341 339 340 339 338 339 338 337 339 341 342 340 336 335 333 332 333 330 326 327 330 329 325 322 325 326 323 321 321 322 321 319 319 319 319 319 317 316 315
78 74 70 68 71 75 80 83 82 80 75 71 70 62 58 54 42 34 25 17 16 13 10 5 1 360 357 357 359 356 354 356 356 356 356 355 358 0 1 360 355 351 351 350 349 350 348 344 344 343 341 342 341 341 341 339 339 342 344 344 343 339 336 333 333 331 327 325 326 328 328 324 324 326 325 323 323 322 322 321 321 321 322 321 320 318 317 317
74 72 72 74 78 80 83 86 84 78 71 68 66 56 52 50 40 32 25 18 14 8 7 5 359 358 360 1 -0 356 356 359 357 356 356 355 357 359 359 359 357 352 349 349 349 349 346 341 344 345 342 342 343 344 341 338 339 342 344 344 343 340 335 331 331 329 326 324 325 326 327 326 326 326 325 324 323 322 322 322 322 323 322 321 320 319 318 318
72 73 77 80 81 81 82 84 80 73 68 66 59 49 50 48 36 33 26 18 16 8 5 5 0 359 3 3 1 359 359 360 359 358 358 358 358 357 356 355 355 353 350 349 348 348 345 340 342 343 340 342 344 342 340 339 339 340 341 342 341 338 332 327 326 325 323 323 325 327 327 326 326 327 326 325 324 324 324 323 322 322 322 322 320 319 319 318
75 79 79 79 79 76 76 77 74 68 66 61 52 46 48 44 33 33 27 18 18 10 4 5 3 3 4 2 2 3 360 358 358 357 359 358 356 356 355 353 353 352 351 351 348 347 344 342 344 343 342 345 345 342 342 342 340 339 340 341 339 334 330 328 327 326 325 323 325 328 326 326 328 327 327 326 325 325 324 324 324 324 324 323 322 321 320 320
80 82 80 77 74 69 71 73 68 66 62 53 48 47 44 38 33 31 26 20 17 11 8 10 8 5 4 2 2 1 358 358 357 356 358 356 354 355 353 352 352 351 350 349 348 347 343 340 343 343 342 345 344 343 346 346 341 340 341 340 338 335 334 334 331 329 329 324 324 327 326 327 329 328 327 327 327 327 327 326 326 325 325 324 323 322 322 321
82 83 81 74 68 66 70 69 59 59 59 48 47 49 42 36 34 29 25 22 18 13 12 13 10 6 4 2 2 360 357 357 357 357 358 356 354 354 352 351 351 351 350 347 347 349 343 338 342 344 342 342 343 341 342 345 344 343 342 340 340 338 335 335 334 332 329 325 325 326 326 327 329 328 328 328 328 329 329 327 327 327 326 325 324 323 322 322
84 84 79 69 63 61 63 61 54 55 54 44 44 47 41 37 35 29 23 21 17 14 14 12 8 6 5 2 0 359 358 357 356 356 357 355 354 354 353 351 348 348 349 347 347 348 344 339 341 343 341 340 342 342 340 341 342 341 340 340 341 339 334 334 334 332 329 326 325 326 327 330 331 330 330 330 330 330 329 328 327 327 327 325 325 324 323 322
84 83 78 64 58 59 60 58 54 50 46 42 44 44 40 39 35 28 22 19 17 14 12 10 7 5 4 1 360 359 358 356 355 355 356 354 352 353 354 352 347 346 346 345 346 346 344 340 337 339 342 341 342 343 341 340 340 339 339 340 340 338 335 332 331 332 331 328 327 326 326 330 333 332 332 331 330 330 329 328 327 327 327 325 325 324 323 323
82 80 72 58 54 57 59 56 49 43 43 45 46 43 39 36 33 28 22 18 15 13 10 9 7 5 2 -0 360 359 356 355 354 354 355 354 353 353 353 351 347 345 344 344 346 346 344 341 337 339 342 342 342 343 340 339 340 340 339 339 338 338 337 334 331 333 332 328 327 324 323 329 334 333 331 331 330 330 329 328 328 327 326 325 325 325 324 324
77 75 65 54 54 58 58 53 45 41 45 45 43 42 37 32 30 27 22 18 14 11 10 8 6 4 1 359 358 357 356 355 355 354 353 353 354 353 351 350 347 344 344 344 346 346 343 341 339 339 340 341 343 344 342 342 342 341 340 339 338 337 338 335 331 331 330 327 326 323 321 328 334 332 330 331 330 329 329 328 328 327 326 325 325 326 325 324
73 71 62 54 54 58 60 56 45 41 44 43 40 38 34 31 29 25 21 17 13 10 9 7 4 2 0 358 357 356 356 355 354 354 353 352 353 351 349 348 346 344 344 345 345 345 344 343 341 339 339 340 343 343 343 343 341 339 339 339 337 336 335 333 330 330 329 327 328 325 322 326 331 331 330 330 330 329 329 329 328 327 326 326 327 327 326 325
72 69 61 53 52 58 60 55 48 45 44 42 40 36 32 29 26 22 18 15 12 10 8 6 3 1 360 359 356 355 356 355 354 354 353 352 352 351 350 349 348 347 346 347 345 344 345 345 343 342 341 342 342 342 341 340 338 337 338 338 337 336 334 331 331 331 329 327 329 326 323 326 330 331 329 329 330 329 329 329 328 327 327 327 328 327 325 325
70 66 60 53 55 60 58 54 53 49 44 41 38 33 29 28 24 19 16 13 11 8 6 4 2 360 359 358 356 355 355 355 354 353 353 352 351 350 351 350 350 348 347 346 344 344 345 346 346 346 343 341 340 339 338 337 336 336 336 337 337 337 334 332 332 332 330 329 329 326 322 324 328 330 330 330 331 330 329 329 329 328 328 328 328 327 325 325
66 62 57 53 55 57 55 53 52 48 43 39 35 30 26 24 21 16 14 12 10 7 5 3 0 358 358 356 355 355 354 354 354 352 352 351 349 349 349 349 349 348 347 346 344 345 345 345 347 346 340 336 335 333 334 335 334 333 334 335 337 338 336 334 334 332 330 329 328 327 325 325 327 330 331 332 332 331 330 330 330 329 328 328 328 327 325 325
63 59 54 52 52 51 50 47 44 42 38 33 29 27 23 19 16 14 11 10 7 5 3 2 360 358 356 355 355 354 353 353 353 352 352 349 348 348 348 347 348 346 346 346 346 346 345 343 345 343 338 334 332 332 333 334 332 332 333 335 338 339 337 335 334 333 332 330 328 329 329 326 327 330 332 332 333 332 331 331 329 328 328 328 327 326 326 325
60 59 54 52 50 46 43 41 39 38 34 29 26 23 20 17 14 12 10 7 6 3 1 0 1 359 355 354 355 354 352 352 353 352 351 349 348 348 348 348 347 346 346 347 347 346 344 343 343 342 339 336 334 334 336 335 333 333 334 335 337 339 337 336 334 334 334 330 327 328 329 327 328 331 332 333 333 332 331 330 329 328 328 328 327 327 326 324
60 59 52 48 49 46 40 35 34 33 29 25 23 19 17 15 12 9 7 5 4 3 0 359 359 358 356 353 353 353 352 351 351 350 350 350 349 348 348 348 346 347 348 347 346 346 344 343 344 342 339 338 337 338 338 337 335 336 338 338 339 340 338 336 335 335 333 329 327 328 327 327 330 332 333 333 333 331 331 330 329 329 329 329 328 327 326 324
58 56 53 51 48 41 35 29 26 26 23 19 18 16 13 12 10 7 5 3 2 1 359 357 356 357 356 354 352 354 353 350 347 346 348 349 348 348 349 347 345 347 348 346 344 345 344 344 344 343 340 340 341 341 340 338 337 338 341 342 341 340 339 338 337 335 333 331 330 329 328 330 333 334 333 333 333 332 332 331 330 330 329 329 328 327 325 325
55 54 54 52 42 29 27 26 22 21 19 15 14 13 10 9 7 5 4 2 1 359 357 356 355 356 356 354 353 353 352 348 345 346 348 349 348 349 349 347 344 344 346 345 344 344 345 344 344 343 342 342 343 343 341 340 340 341 343 343 342 341 340 339 338 337 335 333 331 332 332 334 336 335 333 334 334 334 333 332 331 331 331 330 329 327 325 325
51 48 45 43 35 24 22 22 18 18 17 13 12 10 7 7 5 3 3 1 359 358 356 355 354 354 354 354 354 352 350 348 348 349 350 350 352 353 351 350 349 346 345 345 344 345 346 345 344 345 342 341 344 343 340 340 342 343 343 343 343 342 340 339 338 337 336 334 333 333 334 335 336 335 335 335 335 335 334 332 331 331 330 329 329 328 326 326